Regional Weather Roundup
Issued by NWS Cleveland, OH

Home | Current Version | Previous Version | Text Only | Print | Product List | Glossary Off
Versions: 1 2 3 4 5 6 7 8 9 10 11 12 13 14 15 16 17 18 19 20 21 22 23 24 25 26 27 28 29 30 31 32 33 34 35 36 37 38 39 40 41 42 43 44 45 46 47 48 49 50

000
ASUS41 KCLE 161202
RWRCLE
OHIO REGIONAL WEATHER ROUNDUP
NATIONAL WEATHER SERVICE CLEVELAND, OH
700 AM EST MON JAN 16 2017

NOTE: "FAIR" INDICATES FEW OR NO CLOUDS BELOW 12,000 FEET WITH NO
SIGNIFICANT WEATHER AND/OR OBSTRUCTIONS TO VISIBILITY.

OHZ001>008-015>018-024>027-034-035-043-044-161300-
   NORTHWEST OHIO

CITY           SKY/WX    TMP DP  RH WIND       PRES   REMARKS
DEFIANCE       CLOUDY    31  26  82 NE3       30.31F HAZE
FINDLAY        CLOUDY    32  27  81 SE3       30.30S HAZE
TOLEDO EXPRESS CLOUDY    27  26  96 E5        30.32S FOG     WCI  22
TOLEDO EXEC    CLOUDY    29  26  89 E3        30.34S FOG
LIMA           CLOUDY    33  31  92 CALM      30.30R FOG
$$

OHZ009>014-019>023-028>033-038-089-161300-
   NORTHEAST OHIO

CITY           SKY/WX    TMP DP  RH WIND       PRES   REMARKS
CLE-HOPKINS    CLOUDY    29  22  75 CALM      30.37S
CLE-LAKEFRONT  CLOUDY    28  21  75 SE7       30.35R WCI  21
CUY CO. ARPT   PTCLDY    28  23  80 SE6       30.34  WCI  22
LORAIN-ELYRIA  CLOUDY    26  22  84 S3        30.34S FOG
ASHTABULA      NOT AVBL
AKRON-CANTON   CLOUDY    29  20  69 SE8       30.32F WCI  21
WOOSTER        CLOUDY    28  24  85 E3        30.32F
MANSFIELD      CLOUDY    30  26  85 S6        30.31R WCI  24
YOUNGSTOWN     CLOUDY    21  17  84 SE6       30.34R WCI  13
$$

OHZ042-051>053-060>062-070>072-077>081-161300-
  SOUTHWEST OHIO

CITY           SKY/WX    TMP DP  RH WIND       PRES   REMARKS
CINC-COVINGTON FOG       38  38 100 E8        30.28R VSB 1/2
CINC-LUNKEN    CLOUDY    39  39 100 NE3       30.32R FOG
HAMILTON       CLOUDY    39  38  96 E5        30.31R FOG
DAYTON         CLOUDY    35  33  92 E5        30.29S FOG
WRIGHT-PAT AFB CLOUDY    36  36  99 E5        30.29S
DAYTON GENERAL CLOUDY    37  35  92 SE6       30.28R FOG
WILMINGTON     CLOUDY    35  35 100 E7        30.29S FOG     WCI  29
$$

OHZ036-037-039>041-045>050-054>059-063>069-073>076-082>088-161300-
  CENTRAL AND SOUTHEAST OHIO

CITY           SKY/WX    TMP DP  RH WIND       PRES   REMARKS
COLUMBUS       CLOUDY    37  31  78 CALM      30.32R
OSU AIRPORT    CLOUDY    33  31  92 CALM      30.31R FOG
BOLTON FIELD   NOT AVBL
RICKENBACK AFB NOT AVBL
NEWARK         CLOUDY    32  28  85 NE3       30.31S
MARION         CLOUDY    31  28  89 E6        30.31S FOG     WCI  25
LANCASTER      CLOUDY    36  32  85 SE3       30.32R
ZANESVILLE     CLOUDY    32  29  88 NE5       30.32S FOG     WCI  27
NEW PHILLY     NOT AVBL
$$




USA.gov is the U.S. government's official web portal to all federal, state and local government web resources and services.